Location: Bremen
(53.0830°N, 8.8000°E)
Time: 18:18:20
(UTC+01:00)

Envisat - Pass Details

Date: 05 October 2022
Orbit: 763 x 765 km, 98.2° (Epoch: 30 November)

Event Time Altitude Azimuth Distance (km) Brightness Sun altitude
Rises 06:20:43 0° 13° (NNE) 3,248 6.5 -11.6°
Reaches altitude 10° 06:23:03 10° 11° (N) 2,317 5.7 -11.3°
Maximum altitude 06:28:07 67° 289° (WNW) 832 3.0 -10.5°
Drops below altitude 10° 06:33:08 10° 208° (SSW) 2,300 5.2 -9.8°
Sets 06:35:26 0° 206° (SSW) 3,222 5.9 -9.5°
